Regional Weather Roundup
Issued by NWS

Home | Current Version | Previous Version | Text Only | Print | Product List | Glossary Off
Versions: 1 2 3 4 5 6 7 8 9 10 11 12 13 14 15 16 17 18 19 20 21 22 23 24 25 26 27 28 29 30 31 32 33 34 35 36 37 38 39 40 41 42 43 44 45 46 47 48 49 50

653
ASUS43 KTOP 271908
RWRKS

WEATHER ROUNDUP FOR KANSAS
NATIONAL WEATHER SERVICE GOODLAND KS
200 PM CDT MON MAR 27 2017

NOTE:  "FAIR" INDICATES FEW OR NO CLOUDS BELOW 12,000 FEET WITH NO
SIGNIFICANT WEATHER AND/OR OBSTRUCTIONS TO VISIBILITY.

KSZ001>006-013>018-027>032-041>047-272000-
NORTHWEST KANSAS

CITY           SKY/WX    TMP DP  RH WIND       PRES   REMARKS
GOODLAND       SUNNY     61  40  45 S9        29.91F
HAYS             N/A     57  44  62 E3        29.96F
HILL CITY      MOSUNNY   54  46  74 E7        29.96F
RUSSELL        MOSUNNY   59  42  53 E8        29.94F
$$

KSZ061>065-074>080-084>089-272000-
SOUTHWEST KANSAS

CITY           SKY/WX    TMP DP  RH WIND       PRES   REMARKS
DODGE CITY     SUNNY     62  37  39 CALM      29.94F
ELKHART          N/A     62  38  41 SE6         N/A
GARDEN CITY    SUNNY     63  38  39 NW5       29.93F
GREAT BEND     PTSUNNY   57  44  62 NE6       29.96F
LIBERAL        SUNNY     63  37  39 CALM      29.96F
PRATT          MOSUNNY   57  42  57 N13       29.95F
$$

KSZ066>073-081>083-090>101-272000-
SOUTHEAST KANSAS

CITY           SKY/WX    TMP DP  RH WIND       PRES   REMARKS
CHANUTE        CLOUDY    53  47  79 N12       29.92F
COFFEYVILLE    CLOUDY    55  48  77 NW10      29.94R
HUTCHINSON     CLOUDY    53  46  77 N10       29.96F
MEDICINE LODGE   N/A     61  43  51 N9        29.93F
NEWTON         CLOUDY    50  45  83 NW13      29.97S
PARSONS        CLOUDY    55  48  77 NW12      29.93S
WICHITA INTL   CLOUDY    51  45  79 N10       29.97S
WICHITA JABRA  CLOUDY    50  45  83 N13       29.97S
WICHITA MCCONL CLOUDY    51  44  79 N12       29.96S
WINFIELD       CLOUDY    53  46  77 N10       29.97F
$$

KSZ007>012-019>026-033>040-048>060-102>105-272000-
NORTHEAST KANSAS

CITY           SKY/WX    TMP DP  RH WIND       PRES   REMARKS
CONCORDIA      CLOUDY    49  46  90 N8        29.98R
EMPORIA        CLOUDY    51  47  86 N8        29.94S
LAWRENCE       CLOUDY    51  48  89 N14       29.94F
MANHATTAN      CLOUDY    55  47  74 N8        29.95F
MARYSVILLE     CLOUDY    52  45  76 NE7       29.96F
OLATHE IND     CLOUDY    52  49  89 N16       29.92F
OLATHE EXE     CLOUDY    50  48  93 N14       29.91F
SALINA         CLOUDY    53  46  77 NW7       29.98S
TOPEKA BILLARD CLOUDY    52  48  86 N9        29.95S
TOPEKA FORBES  CLOUDY    50  47  89 N10       29.94S
$$




USA.gov is the U.S. government's official web portal to all federal, state and local government web resources and services.